Weather History for KIFP - September, 2012

Change the Weather History Date:

Monday, September 10, 2012

  Actual Average Record
Temperature  
Mean Temperature 90 °F -  
Max Temperature 98 °F 100 °F 115 °F (1990)
Min Temperature 82 °F 77 °F 62 °F (1996)
Cooling Degree Days 25    
Growing Degree Days 40 (Base 50)    
Moisture  
Dew Point 60 °F    
Average Humidity 39    
Maximum Humidity 55    
Minimum Humidity 23    
Precipitation  
Precipitation 0.00 in - - ()
Sea Level Pressure  
Sea Level Pressure 29.88 in    
Wind  
Wind Speed 9 mph (SSW)    
Max Wind Speed 20 mph    
Max Gust Speed 28 mph    
Visibility 10 miles    
Events      
Averages and records for this station are not official NWS values.
T = Trace of Precipitation, MM = Missing Value Source: NWS Daily Summary

Daily Weather History Graph

Daily Weather History Graph

Search for Another Location

Airport or City:

Trip Planner

Search our weather history database for the weather conditions in past years. The results will help you decide how hot, cold, wet, or windy it might be!

Date:

Astronomy

Sep. 10, 2012 Rise Set
Actual Time 6:17 AM MST 6:51 PM MST
Civil Twilight 5:52 AM MST 7:17 PM MST
Nautical Twilight 5:22 AM MST 7:47 PM MST
Astronomical Twilight 4:51 AM MST 8:17 PM MST
Moon 12:52 AM MST (9/10) 3:15 PM MST (9/10)
Length of Visible Light 13h 24m
Length of Day
12h 33m
Waning Crescent, 29% of the Moon is Illuminated
Sep 10
Waning Crescent
Sep 15
New
Sep 22
First Quarter
Sep 29
Full
Oct 8
Last Quarter

Hourly Weather History & Observations

Time (MST) Temp. Heat Index Dew Point Humidity Pressure Visibility Wind Dir Wind Speed Gust Speed Precip Events Conditions
12:15 AM 84.2 °F 86.6 °F 66.2 °F 55% 29.91 in 10.0 mi South 8.1 mph - N/A   Clear
12:35 AM 84.2 °F 86.6 °F 66.2 °F 55% 29.91 in 10.0 mi SW 4.6 mph - N/A   Clear
12:55 AM 84.2 °F 86.6 °F 66.2 °F 55% 29.91 in 10.0 mi SW 3.5 mph - N/A   Clear
1:15 AM 84.2 °F 85.6 °F 64.4 °F 51% 29.91 in 10.0 mi WSW 4.6 mph - N/A   Clear
1:35 AM 84.2 °F 85.6 °F 64.4 °F 51% 29.91 in 10.0 mi SSW 3.5 mph - N/A   Clear
1:55 AM 84.2 °F 85.6 °F 64.4 °F 51% 29.91 in 10.0 mi South 5.8 mph - N/A   Clear
2:15 AM 84.2 °F 85.6 °F 64.4 °F 51% 29.91 in 10.0 mi SSW 3.5 mph - N/A   Clear
2:35 AM 84.2 °F 85.6 °F 64.4 °F 51% 29.91 in 10.0 mi SSE 4.6 mph - N/A   Clear
2:55 AM 84.2 °F 85.6 °F 64.4 °F 51% 29.91 in 10.0 mi South 5.8 mph - N/A   Clear
3:15 AM 84.2 °F 85.6 °F 64.4 °F 51% 29.92 in 10.0 mi SSW 6.9 mph - N/A   Clear
3:35 AM 84.2 °F 85.6 °F 64.4 °F 51% 29.91 in 10.0 mi SSW 8.1 mph - N/A   Clear
3:55 AM 84.2 °F 85.6 °F 64.4 °F 51% 29.92 in 10.0 mi South 6.9 mph - N/A   Clear
4:15 AM 84.2 °F 85.6 °F 64.4 °F 51% 29.92 in 10.0 mi South 8.1 mph - N/A   Clear
4:35 AM 84.2 °F 85.0 °F 62.6 °F 48% 29.91 in 10.0 mi South 8.1 mph - N/A   Clear
4:55 AM 84.2 °F 85.0 °F 62.6 °F 48% 29.91 in 10.0 mi South 10.4 mph - N/A   Clear
5:15 AM 84.2 °F 85.0 °F 62.6 °F 48% 29.91 in 10.0 mi South 9.2 mph - N/A   Clear
5:35 AM 82.4 °F 83.4 °F 62.6 °F 51% 29.92 in 10.0 mi South 12.7 mph - N/A   Clear
5:55 AM 82.4 °F 83.9 °F 64.4 °F 54% 29.93 in 10.0 mi SSW 5.8 mph - N/A   Clear
6:15 AM 82.4 °F 83.9 °F 64.4 °F 54% 29.93 in 10.0 mi South 8.1 mph - N/A   Clear
6:35 AM 82.4 °F 83.9 °F 64.4 °F 54% 29.94 in 10.0 mi SSE 9.2 mph - N/A   Clear
6:55 AM 82.4 °F 83.9 °F 64.4 °F 54% 29.95 in 10.0 mi South 5.8 mph - N/A   Clear
7:15 AM 82.4 °F 83.9 °F 64.4 °F 54% 29.95 in 10.0 mi SW 3.5 mph - N/A   Clear
7:35 AM 82.4 °F 83.9 °F 64.4 °F 54% 29.95 in 10.0 mi SW 6.9 mph - N/A   Clear
7:55 AM 84.2 °F 85.6 °F 64.4 °F 51% 29.95 in 10.0 mi SW 8.1 mph - N/A   Clear
8:15 AM 84.2 °F 85.6 °F 64.4 °F 51% 29.96 in 10.0 mi SW 6.9 mph - N/A   Clear
8:35 AM 84.2 °F 85.6 °F 64.4 °F 51% 29.96 in 10.0 mi SW 9.2 mph - N/A   Clear
8:55 AM 86.0 °F 86.6 °F 62.6 °F 45% 29.96 in 10.0 mi SSW 10.4 mph 16.1 mph N/A   Clear
9:15 AM 86.0 °F 86.6 °F 62.6 °F 45% 29.96 in 10.0 mi South 11.5 mph - N/A   Clear
9:35 AM 86.0 °F 86.1 °F 60.8 °F 43% 29.95 in 10.0 mi SW 9.2 mph 16.1 mph N/A   Clear
9:55 AM 87.8 °F 87.6 °F 60.8 °F 40% 29.95 in 10.0 mi SSW 11.5 mph 16.1 mph N/A   Clear
10:15 AM 89.6 °F 88.9 °F 59.0 °F 36% 29.95 in 10.0 mi SW 10.4 mph 16.1 mph N/A   Clear
10:35 AM 89.6 °F 88.9 °F 59.0 °F 36% 29.94 in 10.0 mi SSW 8.1 mph - N/A   Clear
10:55 AM 89.6 °F 88.9 °F 59.0 °F 36% 29.94 in 10.0 mi SW 10.4 mph 18.4 mph N/A   Clear
11:15 AM 91.4 °F 90.7 °F 59.0 °F 34% 29.93 in 10.0 mi SW 13.8 mph - N/A   Clear
11:35 AM 93.2 °F 92.6 °F 59.0 °F 32% 29.92 in 10.0 mi South 16.1 mph - N/A   Clear
11:55 AM 93.2 °F 91.9 °F 57.2 °F 30% 29.92 in 10.0 mi SSW 11.5 mph 16.1 mph N/A   Clear
12:15 PM 93.2 °F 91.9 °F 57.2 °F 30% 29.92 in 10.0 mi SSW 13.8 mph 19.6 mph N/A   Clear
12:35 PM 95.0 °F 93.7 °F 57.2 °F 28% 29.91 in 10.0 mi South 13.8 mph 20.7 mph N/A   Clear
12:55 PM 95.0 °F 93.7 °F 57.2 °F 28% 29.90 in 10.0 mi SSW 11.5 mph 17.3 mph N/A   Clear
1:15 PM 95.0 °F 93.7 °F 57.2 °F 28% 29.89 in 10.0 mi SW 9.2 mph 19.6 mph N/A   Clear
1:35 PM 96.8 °F 95.1 °F 55.4 °F 25% 29.88 in 10.0 mi SSE 11.5 mph 19.6 mph N/A   Clear
1:55 PM 95.0 °F 93.7 °F 57.2 °F 28% 29.86 in 10.0 mi SSW 10.4 mph 23.0 mph N/A   Clear
2:15 PM 98.6 °F 97.2 °F 55.4 °F 24% 29.85 in 10.0 mi South 19.6 mph 27.6 mph N/A   Clear
2:35 PM 96.8 °F 95.1 °F 55.4 °F 25% 29.84 in 10.0 mi SSW 16.1 mph 25.3 mph N/A   Clear
2:55 PM 96.8 °F 95.1 °F 55.4 °F 25% 29.83 in 10.0 mi South 13.8 mph 21.9 mph N/A   Clear
3:15 PM 98.6 °F 97.2 °F 55.4 °F 24% 29.82 in 10.0 mi SSW 11.5 mph 24.2 mph N/A   Clear
3:35 PM 98.6 °F 97.2 °F 55.4 °F 24% 29.81 in 10.0 mi SW 15.0 mph 25.3 mph N/A   Clear
4:15 PM 95.0 °F 93.0 °F 55.4 °F 26% 29.80 in 10.0 mi South 10.4 mph 19.6 mph N/A   Clear
4:35 PM 96.8 °F 94.4 °F 53.6 °F 23% 29.78 in 10.0 mi South 17.3 mph 24.2 mph N/A   Clear
4:55 PM 96.8 °F 94.4 °F 53.6 °F 23% 29.78 in 10.0 mi South 15.0 mph 20.7 mph N/A   Clear
5:15 PM 96.8 °F 94.4 °F 53.6 °F 23% 29.78 in 10.0 mi South 16.1 mph 23.0 mph N/A   Clear
5:35 PM 96.8 °F 94.4 °F 53.6 °F 23% 29.78 in 10.0 mi South 16.1 mph - N/A   Clear
5:55 PM 96.8 °F 95.1 °F 55.4 °F 25% 29.78 in 10.0 mi South 13.8 mph 17.3 mph N/A   Clear
6:15 PM 95.0 °F 93.0 °F 55.4 °F 26% 29.78 in 10.0 mi South 11.5 mph - N/A   Clear
6:35 PM 95.0 °F 93.0 °F 55.4 °F 26% 29.78 in 10.0 mi South 13.8 mph - N/A   Clear
6:55 PM 95.0 °F 93.0 °F 55.4 °F 26% 29.78 in 10.0 mi SSW 15.0 mph - N/A   Clear
7:15 PM 93.2 °F 91.9 °F 57.2 °F 30% 29.79 in 10.0 mi South 11.5 mph 16.1 mph N/A   Clear
7:35 PM 93.2 °F 91.9 °F 57.2 °F 30% 29.80 in 10.0 mi South 12.7 mph - N/A   Clear
7:55 PM 93.2 °F 92.6 °F 59.0 °F 32% 29.80 in 10.0 mi South 16.1 mph - N/A   Clear
8:15 PM 93.2 °F 92.6 °F 59.0 °F 32% 29.81 in 10.0 mi South 15.0 mph 20.7 mph N/A   Clear
8:35 PM 91.4 °F 90.7 °F 59.0 °F 34% 29.82 in 10.0 mi South 12.7 mph - N/A   Clear
9:15 PM 91.4 °F 90.7 °F 59.0 °F 34% 29.83 in 10.0 mi South 13.8 mph - N/A   Clear
9:35 PM 89.6 °F 89.5 °F 60.8 °F 38% 29.84 in 10.0 mi South 12.7 mph - N/A   Clear
9:55 PM 89.6 °F 89.5 °F 60.8 °F 38% 29.84 in 10.0 mi South 11.5 mph - N/A   Clear
10:15 PM 89.6 °F 89.5 °F 60.8 °F 38% 29.84 in 10.0 mi South 11.5 mph - N/A   Clear
10:35 PM 89.6 °F 88.9 °F 59.0 °F 36% 29.83 in 10.0 mi South 12.7 mph - N/A   Clear
10:55 PM 87.8 °F 87.1 °F 59.0 °F 38% 29.84 in 10.0 mi South 11.5 mph - N/A   Clear
11:15 PM 87.8 °F 87.1 °F 59.0 °F 38% 29.84 in 10.0 mi SSE 11.5 mph - N/A   Clear
11:35 PM 86.0 °F 85.4 °F 59.0 °F 40% 29.84 in 10.0 mi South 13.8 mph - N/A   Clear
11:55 PM 86.0 °F 86.1 °F 60.8 °F 43% 29.84 in 10.0 mi South 11.5 mph - N/A   Clear